SCP
0 0 0 0 0 0 0 0 0 0 0 0 0 0 0 0 0 0 0 0 0 0 0 0 0 0 0 0 0 0 0 0 0 0 0 0 0 0 0 0 0 -0 -0
0 0 0 0 0 0 0 0 0 0 0 0 0 0 0 0 0 0 0 0 0 0 0 0 0 0 0 0 0 0 0 0 0 0 0 0 0 0 0 0 0 0 -0
0 0 0 0 0 0 0 0 0 0 0 0 0 0 0 0 0 0 0 0 0 0 0 0 0 0 0 0 0 0 0 0 0 0 0 0 0 0 0 0 0 0 0
0 0 0 0 0 0 0 0 0 0 0 0 0 0 0 0 0 0 0 0 0 0 0 0 0 0 0 0 0 0 0 0 0 0 0 0 0 0 0 0 0 0 0
0 0 0 0 0 0 0 0 0 0 0 0 0 0 0 0 0 0 0 0 0 0 0 0 0 0 0 0 0 0 0 0 0 0 0 0 0 0 0 0 0 0 0
0 0 0 0 0 0 0 0 0 0 0 0 0 0 0 0 0 0 0 0 0 0 0 0 0 0 0 0 0 0 0 0 0 0 0 0 0 0 0 0 0 0 -0
0 0 0 0 0 0 0 0 0 0 0 0 0 0 0 0 0 0 0 0 0 0 0 0 0 0 0 0 0 0 0 0 0 0 0 0 0 0 0 0 0 0 0
0 0 0 0 0 0 0 0 0 0 0 0 0 0 0 0 0 0 0 0 0 0 0 0 0 0 0 0 0 0 0 0 0 0 0 0 0 0 0 0 0 0 0
0 0 0 0 0 0 0 0 0 0 0 0 0 0 0 0 0 0 0 0 0 0 0 0 0 0 0 0 0 0 0 0 0 0 0 0 0 0 0 0 0 0 0
0 0 0 0 0 0 0 0 0 0 0 0 0 0 0 0 0 0 0 0 0 0 0 0 0 0 0 0 0 0 0 0 0 0 0 0 0 0 0 0 0 0 0
0 0 0 0 0 0 0 0 0 0 0 0 0 0 0 0 0 0 0 0 0 0 0 0 0 0 0 0 0 0 0 0 0 0 0 0 0 0 0 0 0 0 0
0 0 0 0 0 0 0 0 0 0 0 0 0 0 0 0 0 0 0 0 0 0 0 0 0 0 0 0 0 0 0 0 0 0 0 0 0 0 0 0 0 0 0
0 0 0 0 0 0 0 0 0 0 0 0 0 0 0 0 0 0 0 0 0 0 0 0 0 0 0 0 0 0 0 0 0 0 0 0 0 0 0 0 0 0 0
0 0 0 0 0 0 0 0 0 0 0 0 0 0 0 0 0 0 0 0 0 0 0 0 0 0 0 0 0 0 0 0 0 -0 0 0 0 0 0 0 0 0 0
0 0 0 0 0 0 0 0 0 0 0 0 0 0 0 0 0 0 0 0 0 0 0 0 0 0 0 0 0 0 0 0 0 0 0 0 0 0 0 0 0 0 0
0 0 0 0 0 0 0 0 0 0 0 0 0 0 0 0 0 0 0 0 0 0 0 0 0 0 0 0 0 0 0 0 0 0 0 0 0 0 0 0 0 0 0
0 0 0 0 0 0 0 0 0 0 0 0 0 0 0 0 0 0 0 0 0 0 0 0 0 0 0 0 0 0 0 0 0 0 0 0 0 0 0 0 0 0 0
0 0 0 0 0 0 0 0 0 0 0 0 0 0 0 0 0 0 0 0 0 0 0 0 0 0 0 0 0 0 0 0 0 0 0 0 0 0 0 0 0 0 0
0 0 0 0 0 0 0 0 0 0 0 0 0 0 0 0 0 0 0 0 0 0 0 0 0 0 0 0 0 0 0 0 0 0 0 0 0 0 0 0 0 0 0
0 0 0 0 0 0 0 0 0 0 0 0 0 0 0 0 0 0 0 0 0 0 0 0 0 0 0 0 0 0 0 0 0 0 0 0 0 0 0 0 0 0 0
0 0 0 0 0 0 0 0 0 0 0 0 0 0 0 0 0 0 0 0 0 0 0 0 0 0 0 0 0 0 0 0 0 0 0 0 0 0 0 0 0 0 0
0 0 0 0 0 0 0 0 0 0 0 0 0 0 0 0 0 0 0 0 0 0 0 0 0 0 0 0 0 0 0 0 0 0 0 0 0 0 0 0 0 0 0
0 0 0 0 0 0 0 0 0 0 0 0 0 0 0 0 0 0 0 0 0 0 0 0 0 0 0 0 0 0 0 0 0 0 0 0 0 0 0 0 0 0 0
0 0 0 0 0 0 0 0 0 0 0 0 0 0 0 0 0 0 0 0 0 0 0 0 0 0 0 0 0 0 0 0 0 0 0 0 0 0 0 0 0 0 0
0 0 0 0 0 0 0 0 0 0 0 0 0 0 0 0 0 0 0 0 0 0 0 -0 0 0 -0 -0 0 0 0 0 0 0 0 0 0 0 0 0 0 0 0
0 0 0 0 0 0 0 0 0 0 0 0 0 0 0 0 0 0 0 0 0 -0 -0 -0 0 -0 -0 -0 0 0 0 0 0 0 0 0 0 0 0 0 0 0 0
Wind_Speed_500mb
37 34 32 31 30 26 23 19 16 14 10 9 13 18 22 26 28 31 33 35 36 39 41 45 48 53 56 59 60 60 60 59 66 99 89 85 90 94 96 89 89 94 97
42 40 38 38 36 32 29 25 21 13 11 10 14 20 25 30 35 36 37 39 42 45 48 50 53 56 59 62 63 65 67 66 64 85 97 89 78 89 89 88 88 85 86
50 46 45 44 42 38 34 29 23 17 14 12 17 23 29 35 39 42 44 43 45 46 49 52 55 59 63 65 67 71 73 71 71 69 99 81 79 70 79 82 80 80 70
51 51 50 50 47 43 40 35 29 24 20 19 21 26 30 37 42 44 45 46 48 49 51 54 56 59 63 67 70 71 70 72 74 70 81 86 75 68 60 68 78 73 81
55 55 55 53 52 49 47 42 37 32 29 27 28 29 33 38 43 45 49 50 51 51 53 55 58 62 66 68 68 70 69 69 66 69 75 76 72 70 62 68 72 78 77
59 59 59 59 57 54 51 48 44 42 39 38 36 36 36 38 44 47 51 52 54 55 56 57 59 63 64 66 65 59 49 57 65 70 74 76 79 76 72 68 64 71 79
60 62 62 62 58 56 56 54 53 51 50 47 44 44 44 42 45 48 53 57 58 57 57 59 61 61 64 63 64 59 58 56 56 66 76 77 79 79 76 74 72 73 77
60 64 62 61 60 59 60 60 59 58 58 55 53 51 50 48 46 49 55 59 60 59 59 59 60 62 62 61 63 69 71 73 75 74 80 87 87 85 83 88 91 89 86
51 55 56 59 61 61 63 63 63 63 63 61 58 56 53 51 50 54 58 61 61 59 59 58 58 62 61 48 57 67 74 77 69 60 59 73 80 79 72 76 77 79 80
42 43 45 49 55 59 59 62 65 65 64 63 61 58 56 54 53 56 59 61 61 60 59 56 55 45 45 49 54 67 79 82 80 75 77 75 67 65 53 58 67 71 76
32 31 37 43 48 50 54 59 64 65 65 64 61 59 60 59 58 59 58 60 58 58 59 59 57 45 44 50 57 61 65 64 74 76 74 68 62 56 52 48 49 57 66
29 35 40 45 47 48 50 55 61 64 64 62 61 62 63 63 62 60 59 60 57 55 57 57 54 43 51 58 57 57 54 58 62 62 62 61 59 57 53 56 58 60 65
34 38 45 50 53 54 55 55 58 62 64 63 63 64 64 64 64 62 60 57 52 47 52 48 49 61 67 59 53 52 54 53 54 58 57 57 54 57 58 59 57 59 62
43 46 50 54 60 61 60 58 59 62 64 65 65 66 65 65 65 63 59 50 44 44 45 55 60 63 61 54 51 47 48 47 49 50 54 59 59 57 57 53 57 57 61
56 54 56 58 62 62 60 61 61 62 63 65 68 69 68 69 63 63 56 44 44 40 51 64 64 59 54 51 49 47 46 46 47 50 55 56 60 61 58 54 54 55 56
65 67 64 60 57 57 61 59 62 65 68 69 70 73 71 71 61 47 39 40 37 53 60 60 61 52 49 49 48 49 47 48 48 52 53 56 61 61 57 57 55 54 56
61 59 55 53 55 54 56 61 64 65 69 70 73 73 72 67 52 44 48 42 47 58 59 58 54 48 47 48 47 48 51 51 51 52 54 56 59 61 56 58 63 62 62
52 51 48 48 48 51 54 56 61 65 68 73 72 71 69 65 62 59 44 41 57 62 55 52 48 46 46 48 49 50 52 52 51 50 53 54 58 61 59 59 65 64 63
40 40 40 44 46 50 54 58 62 66 70 74 75 73 66 63 65 62 46 54 61 57 52 49 46 46 47 48 51 52 52 53 51 49 51 53 56 60 62 58 62 61 61
34 36 39 44 48 52 54 58 61 65 69 71 72 72 62 64 61 63 57 57 55 52 51 49 46 46 48 50 52 52 51 49 47 46 48 50 54 58 61 59 63 63 60
34 37 40 43 47 51 55 57 60 64 67 69 70 67 60 55 56 55 52 55 49 48 48 48 47 47 49 50 50 50 48 47 43 44 45 46 52 58 57 59 62 59 57
32 35 39 41 44 47 50 53 55 59 62 65 65 61 54 50 52 50 57 56 46 45 46 47 49 48 48 48 47 47 46 44 41 41 41 43 50 52 54 59 59 57 55
31 33 35 37 40 43 46 49 52 53 54 54 55 56 54 52 51 51 54 51 45 45 47 49 49 46 44 45 43 44 43 40 39 38 38 41 47 48 51 55 55 55 54
28 29 31 35 38 40 42 43 44 45 46 46 46 47 47 45 46 46 47 46 45 46 47 47 46 44 42 43 42 41 40 40 39 34 33 37 43 44 47 47 48 49 49
26 28 31 33 34 35 37 39 41 43 43 43 42 42 42 42 44 43 44 44 44 45 44 44 44 43 44 43 41 39 38 37 38 34 32 35 37 41 39 39 41 42 42
27 29 31 32 34 35 37 39 40 41 42 41 40 40 40 41 41 41 42 42 41 42 42 42 41 42 43 42 40 38 38 36 36 32 30 32 31 32 30 30 34 37 39
Wind_Direction_500mb
202 206 208 214 219 221 224 225 230 237 255 299 319 323 325 321 319 318 316 316 319 320 325 326 327 326 327 324 321 317 312 304 293 303 301 304 303 303 303 300 298 299 301
209 210 214 220 223 225 227 230 232 240 266 297 317 325 326 327 323 319 316 315 319 322 325 324 324 323 323 321 319 316 312 308 301 298 302 304 303 305 303 303 301 297 299
215 215 219 223 226 229 231 231 237 243 261 293 315 320 325 323 321 318 315 313 314 315 318 319 321 321 322 320 318 316 312 309 306 300 301 303 303 304 305 304 302 300 302
222 223 225 229 230 232 233 235 237 244 257 280 296 308 315 318 315 313 310 310 309 312 315 317 318 317 317 317 315 313 311 307 305 301 300 302 306 310 307 304 305 300 299
228 230 233 232 232 232 236 240 242 250 262 273 284 294 304 310 310 312 309 308 306 308 311 312 314 315 316 316 316 313 309 308 308 306 304 304 304 308 307 305 302 304 306
237 238 236 234 234 238 241 244 248 253 262 268 276 285 292 300 309 309 306 305 304 305 308 310 312 314 314 313 313 309 303 305 303 299 301 299 302 302 303 302 302 304 304
243 241 238 238 242 243 245 249 252 258 262 269 275 280 284 294 303 307 305 304 303 303 306 309 310 311 312 313 311 309 312 307 297 296 292 294 297 302 301 298 298 296 296
245 244 242 243 245 245 248 253 257 260 267 270 272 276 281 291 300 304 304 301 300 302 305 307 309 312 313 311 318 318 313 310 310 306 298 296 297 300 297 297 297 297 297
246 244 244 244 246 249 254 259 262 264 268 269 272 275 278 288 298 301 301 300 300 302 304 306 309 311 316 313 309 306 307 303 301 296 290 290 290 288 289 289 289 291 291
249 247 244 247 250 254 261 264 264 265 266 268 271 274 278 286 294 297 298 296 299 302 302 303 307 302 304 309 305 302 300 300 306 304 297 296 295 294 292 284 288 286 288
236 239 248 251 255 259 262 263 264 264 264 268 271 274 279 286 292 294 293 292 295 297 298 302 305 303 305 304 308 304 307 310 300 301 304 303 302 300 298 295 284 281 283
245 253 251 252 253 256 262 265 263 261 264 266 270 275 281 285 291 292 291 292 295 293 297 300 302 300 298 312 314 313 312 313 316 314 313 312 308 304 299 291 288 284 280
257 256 254 252 253 258 261 262 262 263 264 268 272 278 282 287 290 289 288 290 291 289 294 297 286 296 305 311 314 316 317 321 324 324 322 321 315 309 306 306 303 300 298
254 256 257 259 260 260 259 262 265 267 268 270 273 276 280 283 285 285 285 286 284 290 296 290 295 301 306 310 315 319 321 324 327 329 326 327 326 322 318 317 313 311 309
252 259 264 264 261 260 262 265 269 270 270 273 275 276 277 281 283 281 281 284 287 290 281 286 294 300 303 310 315 320 324 327 331 332 330 333 336 332 323 320 318 314 313
259 264 266 264 260 260 262 264 268 269 269 269 271 274 277 279 281 282 269 272 276 270 276 286 293 297 301 308 314 319 324 329 329 330 334 337 336 332 327 324 324 320 311
261 261 257 254 253 256 258 264 269 272 273 273 275 276 277 278 273 269 260 272 268 269 277 285 287 292 298 303 310 315 319 323 324 328 332 335 336 336 331 328 328 324 318
251 249 247 251 253 262 267 268 270 272 274 277 278 278 278 277 274 269 265 260 263 269 277 279 282 288 294 300 306 310 314 316 319 323 327 331 337 338 333 330 325 324 323
244 246 252 259 264 266 269 272 275 276 278 281 282 281 282 277 274 271 262 255 258 268 273 276 280 286 292 298 303 307 309 312 314 320 324 328 335 337 335 333 331 330 327
247 256 262 266 271 276 278 280 281 282 283 283 283 284 282 277 271 269 265 262 262 265 270 275 279 285 291 297 300 303 306 309 312 317 319 325 332 337 334 337 334 330 329
259 265 271 277 280 282 285 286 287 287 287 285 283 281 278 273 268 268 269 265 262 264 268 273 280 286 291 295 297 300 305 308 312 314 316 324 332 334 337 341 336 334 332
270 276 280 283 288 292 295 296 295 293 291 288 287 285 280 267 261 260 260 267 267 267 270 275 281 287 291 293 295 299 303 306 311 311 314 322 330 335 340 340 338 338 337
275 282 289 296 300 302 304 305 304 301 299 296 294 290 284 276 270 264 264 267 269 270 274 277 282 286 288 289 291 295 299 305 308 308 310 318 330 336 342 338 341 343 343
287 293 299 302 305 306 308 310 310 309 305 301 296 293 288 282 277 273 271 272 274 275 277 279 281 284 285 286 289 292 296 301 303 303 302 312 326 337 336 335 342 347 347
297 299 299 300 301 304 307 308 308 307 306 304 299 294 290 285 281 278 277 277 277 277 278 279 281 284 284 285 287 289 290 293 297 294 290 296 323 329 325 335 343 348 354
294 295 295 297 300 303 305 305 305 306 305 301 299 296 293 289 285 283 282 281 281 280 280 281 282 283 283 285 287 286 284 286 290 284 279 290 306 313 321 335 347 352 356
Wind_Speed_850mb
37 34 32 31 30 26 23 19 16 14 10 9 13 18 22 26 28 31 33 35 36 39 41 45 48 53 56 59 60 60 60 59 66 99 89 85 90 94 96 89 89 94 97
42 40 38 38 36 32 29 25 21 13 11 10 14 20 25 30 35 36 37 39 42 45 48 50 53 56 59 62 63 65 67 66 64 85 97 89 78 89 89 88 88 85 86
50 46 45 44 42 38 34 29 23 17 14 12 17 23 29 35 39 42 44 43 45 46 49 52 55 59 63 65 67 71 73 71 71 69 99 81 79 70 79 82 80 80 70
51 51 50 50 47 43 40 35 29 24 20 19 21 26 30 37 42 44 45 46 48 49 51 54 56 59 63 67 70 71 70 72 74 70 81 86 75 68 60 68 78 73 81
55 55 55 53 52 49 47 42 37 32 29 27 28 29 33 38 43 45 49 50 51 51 53 55 58 62 66 68 68 70 69 69 66 69 75 76 72 70 62 68 72 78 77
59 59 59 59 57 54 51 48 44 42 39 38 36 36 36 38 44 47 51 52 54 55 56 57 59 63 64 66 65 59 49 57 65 70 74 76 79 76 72 68 64 71 79
60 62 62 62 58 56 56 54 53 51 50 47 44 44 44 42 45 48 53 57 58 57 57 59 61 61 64 63 64 59 58 56 56 66 76 77 79 79 76 74 72 73 77
60 64 62 61 60 59 60 60 59 58 58 55 53 51 50 48 46 49 55 59 60 59 59 59 60 62 62 61 63 69 71 73 75 74 80 87 87 85 83 88 91 89 86
51 55 56 59 61 61 63 63 63 63 63 61 58 56 53 51 50 54 58 61 61 59 59 58 58 62 61 48 57 67 74 77 69 60 59 73 80 79 72 76 77 79 80
42 43 45 49 55 59 59 62 65 65 64 63 61 58 56 54 53 56 59 61 61 60 59 56 55 45 45 49 54 67 79 82 80 75 77 75 67 65 53 58 67 71 76
32 31 37 43 48 50 54 59 64 65 65 64 61 59 60 59 58 59 58 60 58 58 59 59 57 45 44 50 57 61 65 64 74 76 74 68 62 56 52 48 49 57 66
29 35 40 45 47 48 50 55 61 64 64 62 61 62 63 63 62 60 59 60 57 55 57 57 54 43 51 58 57 57 54 58 62 62 62 61 59 57 53 56 58 60 65
34 38 45 50 53 54 55 55 58 62 64 63 63 64 64 64 64 62 60 57 52 47 52 48 49 61 67 59 53 52 54 53 54 58 57 57 54 57 58 59 57 59 62
43 46 50 54 60 61 60 58 59 62 64 65 65 66 65 65 65 63 59 50 44 44 45 55 60 63 61 54 51 47 48 47 49 50 54 59 59 57 57 53 57 57 61
56 54 56 58 62 62 60 61 61 62 63 65 68 69 68 69 63 63 56 44 44 40 51 64 64 59 54 51 49 47 46 46 47 50 55 56 60 61 58 54 54 55 56
65 67 64 60 57 57 61 59 62 65 68 69 70 73 71 71 61 47 39 40 37 53 60 60 61 52 49 49 48 49 47 48 48 52 53 56 61 61 57 57 55 54 56
61 59 55 53 55 54 56 61 64 65 69 70 73 73 72 67 52 44 48 42 47 58 59 58 54 48 47 48 47 48 51 51 51 52 54 56 59 61 56 58 63 62 62
52 51 48 48 48 51 54 56 61 65 68 73 72 71 69 65 62 59 44 41 57 62 55 52 48 46 46 48 49 50 52 52 51 50 53 54 58 61 59 59 65 64 63
40 40 40 44 46 50 54 58 62 66 70 74 75 73 66 63 65 62 46 54 61 57 52 49 46 46 47 48 51 52 52 53 51 49 51 53 56 60 62 58 62 61 61
34 36 39 44 48 52 54 58 61 65 69 71 72 72 62 64 61 63 57 57 55 52 51 49 46 46 48 50 52 52 51 49 47 46 48 50 54 58 61 59 63 63 60
34 37 40 43 47 51 55 57 60 64 67 69 70 67 60 55 56 55 52 55 49 48 48 48 47 47 49 50 50 50 48 47 43 44 45 46 52 58 57 59 62 59 57
32 35 39 41 44 47 50 53 55 59 62 65 65 61 54 50 52 50 57 56 46 45 46 47 49 48 48 48 47 47 46 44 41 41 41 43 50 52 54 59 59 57 55
31 33 35 37 40 43 46 49 52 53 54 54 55 56 54 52 51 51 54 51 45 45 47 49 49 46 44 45 43 44 43 40 39 38 38 41 47 48 51 55 55 55 54
28 29 31 35 38 40 42 43 44 45 46 46 46 47 47 45 46 46 47 46 45 46 47 47 46 44 42 43 42 41 40 40 39 34 33 37 43 44 47 47 48 49 49
26 28 31 33 34 35 37 39 41 43 43 43 42 42 42 42 44 43 44 44 44 45 44 44 44 43 44 43 41 39 38 37 38 34 32 35 37 41 39 39 41 42 42
27 29 31 32 34 35 37 39 40 41 42 41 40 40 40 41 41 41 42 42 41 42 42 42 41 42 43 42 40 38 38 36 36 32 30 32 31 32 30 30 34 37 39
Wind_Direction_850mb
202 206 208 214 219 221 224 225 230 237 255 299 319 323 325 321 319 318 316 316 319 320 325 326 327 326 327 324 321 317 312 304 293 303 301 304 303 303 303 300 298 299 301
209 210 214 220 223 225 227 230 232 240 266 297 317 325 326 327 323 319 316 315 319 322 325 324 324 323 323 321 319 316 312 308 301 298 302 304 303 305 303 303 301 297 299
215 215 219 223 226 229 231 231 237 243 261 293 315 320 325 323 321 318 315 313 314 315 318 319 321 321 322 320 318 316 312 309 306 300 301 303 303 304 305 304 302 300 302
222 223 225 229 230 232 233 235 237 244 257 280 296 308 315 318 315 313 310 310 309 312 315 317 318 317 317 317 315 313 311 307 305 301 300 302 306 310 307 304 305 300 299
228 230 233 232 232 232 236 240 242 250 262 273 284 294 304 310 310 312 309 308 306 308 311 312 314 315 316 316 316 313 309 308 308 306 304 304 304 308 307 305 302 304 306
237 238 236 234 234 238 241 244 248 253 262 268 276 285 292 300 309 309 306 305 304 305 308 310 312 314 314 313 313 309 303 305 303 299 301 299 302 302 303 302 302 304 304
243 241 238 238 242 243 245 249 252 258 262 269 275 280 284 294 303 307 305 304 303 303 306 309 310 311 312 313 311 309 312 307 297 296 292 294 297 302 301 298 298 296 296
245 244 242 243 245 245 248 253 257 260 267 270 272 276 281 291 300 304 304 301 300 302 305 307 309 312 313 311 318 318 313 310 310 306 298 296 297 300 297 297 297 297 297
246 244 244 244 246 249 254 259 262 264 268 269 272 275 278 288 298 301 301 300 300 302 304 306 309 311 316 313 309 306 307 303 301 296 290 290 290 288 289 289 289 291 291
249 247 244 247 250 254 261 264 264 265 266 268 271 274 278 286 294 297 298 296 299 302 302 303 307 302 304 309 305 302 300 300 306 304 297 296 295 294 292 284 288 286 288
236 239 248 251 255 259 262 263 264 264 264 268 271 274 279 286 292 294 293 292 295 297 298 302 305 303 305 304 308 304 307 310 300 301 304 303 302 300 298 295 284 281 283
245 253 251 252 253 256 262 265 263 261 264 266 270 275 281 285 291 292 291 292 295 293 297 300 302 300 298 312 314 313 312 313 316 314 313 312 308 304 299 291 288 284 280
257 256 254 252 253 258 261 262 262 263 264 268 272 278 282 287 290 289 288 290 291 289 294 297 286 296 305 311 314 316 317 321 324 324 322 321 315 309 306 306 303 300 298
254 256 257 259 260 260 259 262 265 267 268 270 273 276 280 283 285 285 285 286 284 290 296 290 295 301 306 310 315 319 321 324 327 329 326 327 326 322 318 317 313 311 309
252 259 264 264 261 260 262 265 269 270 270 273 275 276 277 281 283 281 281 284 287 290 281 286 294 300 303 310 315 320 324 327 331 332 330 333 336 332 323 320 318 314 313
259 264 266 264 260 260 262 264 268 269 269 269 271 274 277 279 281 282 269 272 276 270 276 286 293 297 301 308 314 319 324 329 329 330 334 337 336 332 327 324 324 320 311
261 261 257 254 253 256 258 264 269 272 273 273 275 276 277 278 273 269 260 272 268 269 277 285 287 292 298 303 310 315 319 323 324 328 332 335 336 336 331 328 328 324 318
251 249 247 251 253 262 267 268 270 272 274 277 278 278 278 277 274 269 265 260 263 269 277 279 282 288 294 300 306 310 314 316 319 323 327 331 337 338 333 330 325 324 323
244 246 252 259 264 266 269 272 275 276 278 281 282 281 282 277 274 271 262 255 258 268 273 276 280 286 292 298 303 307 309 312 314 320 324 328 335 337 335 333 331 330 327
247 256 262 266 271 276 278 280 281 282 283 283 283 284 282 277 271 269 265 262 262 265 270 275 279 285 291 297 300 303 306 309 312 317 319 325 332 337 334 337 334 330 329
259 265 271 277 280 282 285 286 287 287 287 285 283 281 278 273 268 268 269 265 262 264 268 273 280 286 291 295 297 300 305 308 312 314 316 324 332 334 337 341 336 334 332
270 276 280 283 288 292 295 296 295 293 291 288 287 285 280 267 261 260 260 267 267 267 270 275 281 287 291 293 295 299 303 306 311 311 314 322 330 335 340 340 338 338 337
275 282 289 296 300 302 304 305 304 301 299 296 294 290 284 276 270 264 264 267 269 270 274 277 282 286 288 289 291 295 299 305 308 308 310 318 330 336 342 338 341 343 343
287 293 299 302 305 306 308 310 310 309 305 301 296 293 288 282 277 273 271 272 274 275 277 279 281 284 285 286 289 292 296 301 303 303 302 312 326 337 336 335 342 347 347
297 299 299 300 301 304 307 308 308 307 306 304 299 294 290 285 281 278 277 277 277 277 278 279 281 284 284 285 287 289 290 293 297 294 290 296 323 329 325 335 343 348 354
294 295 295 297 300 303 305 305 305 306 305 301 299 296 293 289 285 283 282 281 281 280 280 281 282 283 283 285 287 286 284 286 290 284 279 290 306 313 321 335 347 352 356